x

St. Clair Shores, Mi (clsm4) Weather Station

1:50pm - Wed 26th Nov 2014 All times are CST. -6 hours from GMT.

  • Wind
    5mph, 7mph gusts
  • Air Temp 34°f
  • Sea Pressure 1019.6mb
  • St. Clair Shores, Mi
  • St. Clair Shores, Mi

More Historic Weather Station data

Upgrade to MSW Pro to gain access to the past 30 days of data for over 8000 Wavebouys and Weather Stations around the globe.

Join Pro

Comparision Forecast

View Surf forecast
   
Wed 11/26 1:50pm 5 7 mph 1019.6mb 34f
1:40pm 3 7 mph 1019.6mb 34f
1:30pm 3 6 mph 1019.6mb 34f
1:20pm 3 7 mph 1019.6mb 34f
1:10pm 5 9 mph 1019.6mb 34f
1:00pm 5 6 mph 1020mb 33f
12:50pm 6 9 mph 1020mb 33f
12:40pm 6 7 mph 1020mb 33f
12:30pm 5 8 mph 1020mb 33f
12:20pm 6 8 mph 1020mb 33f
12:10pm 5 7 mph 1020.3mb 33f
12:00pm 6 9 mph 1020.3mb 33f
11:50am 7 8 mph 1020.3mb 33f
11:40am 6 9 mph 1020.7mb 32f
11:30am 5 8 mph 1020.7mb 32f
11:20am 5 9 mph 1020.7mb 32f
11:10am 8 10 mph 1020.7mb 32f
11:00am 7 9 mph 1021mb 32f
10:50am 8 9 mph 1021mb 32f
10:40am 5 9 mph 1021.3mb 32f
10:30am 6 9 mph 1021.3mb 32f
10:20am 7 10 mph 1021.3mb 32f
10:10am 9 13 mph 1021.7mb 32f
10:00am 8 10 mph 1021.7mb 32f
9:50am 8 10 mph 1022mb 32f
9:40am 9 11 mph 1021.7mb 32f
9:30am 10 13 mph 1021.7mb 32f
9:20am 11 14 mph 1021.7mb 32f
9:10am 8 14 mph 1022mb 32f
9:00am 8 13 mph 1021.7mb 32f
8:50am 10 13 mph 1021.7mb 32f
8:40am 9 13 mph 1021.7mb 32f
8:30am 9 11 mph 1022mb 32f
8:20am 9 14 mph 1022.4mb 32f
8:10am 9 17 mph 1022.4mb 32f
8:00am 16 20 mph 1022.4mb 32f
7:50am 14 18 mph 1022mb 32f
7:40am 15 17 mph 1022mb 32f
7:30am 14 20 mph 1022.4mb 32f
7:20am 13 15 mph 1022.4mb 31f
7:10am 11 16 mph 1022.4mb 32f
7:00am 10 13 mph 1022.4mb 32f
6:50am 7 17 mph 1022.4mb 31f
6:40am 10 17 mph 1022.4mb 31f
6:30am 13 16 mph 1022mb 31f
6:20am 14 16 mph 1022mb 31f
6:10am 15 18 mph 1022mb 31f
6:00am 13 17 mph 1021.7mb 31f
5:50am 15 17 mph 1021.7mb 31f
5:40am 14 16 mph 1022mb 31f
5:30am 13 16 mph 1022mb 31f
5:20am 11 15 mph 1022mb 31f
5:10am 11 14 mph 1022mb 31f
5:00am 11 14 mph 1022mb 31f
4:50am 10 13 mph 1022.4mb 31f
4:40am 9 11 mph 1022.4mb 31f
4:30am 9 10 mph 1022.4mb 31f
4:20am 8 9 mph 1022.7mb 31f
4:10am 8 11 mph 1022.7mb 31f
4:00am 9 10 mph 1022.7mb 31f
3:50am 8 10 mph 1022.7mb 31f
3:40am 6 7 mph 1022.7mb 31f
3:30am 2 6 mph 1022.7mb 31f
3:20am 2 5 mph 1022.4mb 31f
3:10am 2 9 mph 1022.4mb 31f
3:00am 7 8 mph 1022.7mb 31f
2:50am  -  5 mph 1022.7mb 31f
2:40am  -  3 mph 1022.7mb 31f
2:30am 1 2 mph 1022.7mb 31f
2:20am  -  3 mph 1022.7mb 31f
2:10am 2 3 mph 1022.4mb 31f
2:00am 2 3 mph 1022.7mb 31f
1:50am 3 5 mph 1022.7mb 31f
1:40am 2 3 mph 1022.7mb 31f
1:30am 3 7 mph 1022.4mb 31f
1:20am 6
mph
1022.4mb 31f
1:10am 2 6 mph 1022.4mb 31f
1:00am  -  5 mph 1022.7mb 31f
12:50am 2 5 mph 1022.7mb 31f
12:40am 3 5 mph 1023mb 31f
12:30am 2 5 mph 1023mb 31f
12:20am 2 5 mph 1023mb 31f
12:10am 3 6 mph 1023mb 31f
12:00am 2 6 mph 1023mb 31f
Tue 11/25 11:50pm 5 7 mph 1023mb 31f
11:40pm 3 6 mph 1023.4mb 31f
11:30pm 1 3 mph 1023mb 31f
11:20pm 2 3 mph 1023.4mb 31f
11:10pm 3 5 mph 1023.4mb 31f
11:00pm 5 7 mph 1023mb 31f
10:50pm 3 8 mph 1023mb 31f
10:40pm 3 5 mph 1023mb 31f
10:30pm 3 6 mph 1023mb 31f
10:20pm 5 10 mph 1023mb 31f
10:10pm 3 7 mph 1023mb 31f
10:00pm 5 9 mph 1023mb 31f
9:50pm 6 9 mph 1023.4mb 31f
9:40pm 5 7 mph 1023.4mb 31f
9:30pm 6 8 mph 1023.4mb 31f
9:20pm 5 7 mph 1023mb 31f
9:10pm 7 10 mph 1023mb 31f
9:00pm 2 7 mph 1023mb 31f
8:50pm 3 6 mph 1023mb 31f
8:40pm 5 8 mph 1023mb 31f
8:30pm 5 9 mph 1023mb 31f
8:20pm 6 9 mph 1022.7mb 31f
8:10pm 8 10 mph 1022.7mb 31f
8:00pm 3 7 mph 1022.7mb 31f
7:50pm 5 7 mph 1022.4mb 32f
7:40pm 5 8 mph 1022.4mb 32f
7:30pm 6 9 mph 1022.4mb 32f
7:20pm 6 8 mph 1022mb 32f
7:10pm 6 8 mph 1022mb 32f
7:00pm 7 9 mph 1021.7mb 31f
6:50pm 9 14 mph 1022mb 32f
6:40pm 8 11 mph 1021.7mb 31f
6:30pm 6 10 mph 1021.7mb 31f
6:20pm 6 10 mph 1021.3mb 32f
6:10pm 7 13 mph 1021.3mb 31f
6:00pm 7 13 mph 1021mb 32f
5:50pm 8 14 mph 1021mb 31f
5:40pm 8 11 mph 1021mb 32f
5:30pm 8 14 mph 1021mb 32f
5:20pm 9 14 mph 1021mb 32f
5:10pm 6 17 mph 1021mb 32f
5:00pm 14 16 mph 1020.7mb 31f
4:50pm 9 16 mph 1020.3mb 31f
4:40pm 9 18 mph 1020.3mb 32f
4:30pm 11 16 mph 1020mb 32f
4:20pm 13 16 mph 1020mb 32f
4:10pm 10 18 mph 1020mb 32f
4:00pm 8 15 mph 1019.6mb 32f
3:50pm 9 15 mph 1019.6mb 32f
3:40pm 11 17 mph 1019.6mb 32f
3:30pm 9 18 mph 1019.6mb 32f
3:20pm 14 17 mph 1019.3mb 32f
3:10pm 10 17 mph 1019.3mb 32f
3:00pm 8 17 mph 1019.3mb 32f
2:50pm 11 17 mph 1019mb 32f
2:40pm 11 16 mph 1018.6mb 32f
2:30pm 14 18 mph 1018.3mb 32f
2:20pm 9 16 mph 1018.3mb 32f
2:10pm 11 21 mph 1018.3mb 33f
2:00pm 13 18 mph 1017.9mb 33f
1:50pm 11 17 mph 1017.6mb 33f
1:40pm 13 20 mph 1017.3mb 33f
1:30pm 10 20 mph 1017.3mb 32f
1:20pm 15 22 mph 1017.3mb 33f
1:10pm 14 20 mph 1016.9mb 33f
1:00pm 11 21 mph 1016.9mb 32f
12:50pm 11 18 mph 1016.6mb 33f
12:40pm 15 21 mph 1016.6mb 32f
12:30pm 14 22 mph 1016.6mb 32f
12:20pm 17 21 mph 1016.3mb 32f
12:10pm 14 23 mph 1016.3mb 32f
12:00pm 17 22 mph 1016.6mb 32f
11:50am 11 22 mph 1016.6mb 32f
11:40am 15 21 mph 1016.3mb 32f
11:30am 13 22 mph 1016.3mb 32f
11:20am 16 21 mph 1016.3mb 32f
11:10am 9 22 mph 1015.9mb 31f
11:00am 13 20 mph 1015.9mb 31f
10:50am 14 22 mph 1015.9mb 31f
10:40am 16 23 mph 1015.6mb 31f
10:30am 14 20 mph 1015.6mb 31f
10:20am 14 23 mph 1015.9mb 31f
10:10am 15 23 mph 1015.6mb 32f
10:00am 15 25 mph 1015.6mb 31f
9:50am 10 22 mph 1015.6mb 31f
9:40am 17 28 mph 1015.2mb 31f
9:30am 14 22 mph 1014.9mb 31f
9:21am 16
mph
1014.9mb 31f
9:20am 16 23 mph 1015.2mb 31f
9:10am 16 29 mph 1014.6mb 31f
9:00am 17 29 mph 1014.2mb 31f
8:50am 20 28 mph 1014.2mb 31f
8:40am 17 24 mph 1013.9mb 31f
8:30am 20 26 mph 1013.9mb 31f
8:21am 16 26 mph 1013.5mb 32f
8:20am 16 25 mph 1013.5mb 32f
8:10am 17 24 mph 1013.2mb 32f
8:00am 17 22 mph 1013.2mb 32f
7:50am 17 23 mph 1012.9mb 32f
7:40am 16 25 mph 1012.9mb 32f
7:30am 20 29 mph 1012.9mb 32f
7:20am 14 22 mph 1012.9mb 32f
7:10am 16 28 mph 1012.5mb 32f
7:00am 18 26 mph 1012.5mb 32f
6:50am 17 24 mph 1012.2mb 32f
6:40am 18 26 mph 1012.2mb 32f
6:30am 22 31 mph 1011.9mb 32f
6:28am 14 31 mph 1011.9mb 32f
6:20am 14 29 mph 1011.5mb 32f
6:10am 20 28 mph 1011.5mb 32f
6:00am 15 26 mph 1011.5mb 32f
5:50am 20 26 mph 1011.5mb 32f
5:40am 15 24 mph 1011.2mb 32f
5:30am 14 22 mph 1011.2mb 33f
5:20am 16
mph
1010.8mb 33f
5:10am 14 25 mph 1010.8mb 33f
5:00am 18 24 mph 1010.5mb 33f
4:50am 17 28 mph 1010.5mb 33f
4:40am 17 26 mph 1010.5mb 33f
4:30am 20 31 mph 1009.8mb 33f
4:21am 20 31 mph 1009.8mb 33f
4:20am 20 28 mph 1010.2mb 33f
4:10am 16 25 mph 1009.8mb 34f
4:00am 16 26 mph 1009.5mb 34f
3:50am 16 25 mph 1009.5mb 34f
3:40am 10 23 mph 1009.5mb 34f
3:30am 10 20 mph 1009.1mb 34f
3:20am 10 31 mph 1009.1mb 34f
3:10am 16 30 mph 1008.8mb 34f
3:00am 17 24 mph 1008.8mb 34f
2:50am 15 29 mph 1008.8mb 34f
2:47am 18
mph
1008.8mb 34f
2:40am 18 30 mph 1008.5mb 34f
2:30am 17 31 mph 1008.8mb 34f
2:20am 15 29 mph 1008.5mb 35f
2:14am 21 29 mph 1008.1mb 35f
2:10am 15 24 mph 1008.5mb 35f
2:00am 14 25 mph 1008.5mb 35f
1:50am 18 28 mph 1008.1mb 35f
1:47am 16
mph
1008.1mb 35f
1:40am 13 28 mph 1008.1mb 35f
1:30am 14 24 mph 1007.8mb 35f
1:20am 13 28 mph 1007.8mb 35f
1:10am 14 32 mph 1007.5mb 35f
1:02am 15 32 mph 1007.1mb 35f
1:00am 18 26 mph 1007.5mb 35f
12:50am 14 26 mph 1007.1mb 35f
12:46am 16
mph
1007.1mb 35f
12:40am 15 25 mph 1007.1mb 35f
12:30am 22 34 mph 1006.8mb 35f
12:20am 22 30 mph 1006.8mb 35f
12:10am 18 37 mph 1006.8mb 35f
12:00am 15 34 mph 1006.4mb 35f
Mon 11/24 11:54pm 23 31 mph 1006.1mb 35f
11:50pm 22 34 mph 1006.4mb 35f
11:46pm 21
mph
1006.4mb 35f
11:40pm 24 34 mph 1006.4mb 36f
11:30pm 25 34 mph 1006.1mb 36f
11:20pm 21 32 mph 1006.4mb 36f
11:10pm 22 30 mph 1006.1mb 36f
11:00pm 20 29 mph 1006.1mb 36f
10:53pm 18 29 mph 1006.1mb 36f
10:50pm 17 26 mph 1006.1mb 36f
10:40pm 21 29 mph 1005.8mb 36f
10:30pm 22 34 mph 1005.8mb 36f
10:20pm 18 33 mph 1005.8mb 36f
10:10pm 22 36 mph 1005.1mb 36f
10:00pm 23 31 mph 1005.1mb 36f
9:50pm 16 37 mph 1004.7mb 36f
9:45pm 20
mph
1004.7mb 36f
9:40pm 23 34 mph 1004.7mb 36f
9:33pm 16 31 mph 1004.4mb 36f
9:30pm 18 29 mph 1004.7mb 36f
9:20pm 24 34 mph 1004.4mb 36f
9:10pm 22 37 mph 1004.4mb 36f
9:00pm 15 33 mph 1004.1mb 36f
8:50pm 20 34 mph 1003.7mb 37f
8:44pm 24
mph
1003.7mb 37f
8:40pm 24 38 mph 1003.7mb 37f
8:30pm 17 51 mph 1003.4mb 37f
8:23pm 31
mph
1003mb 37f
8:20pm 28 45 mph 1003mb 37f
8:10pm 21 37 mph 1003mb 37f
8:00pm 26 36 mph 1003mb 37f
7:50pm 22 38 mph 1002.7mb 37f
7:44pm 21
mph
1002.4mb 37f
7:40pm 23 48 mph 1002.4mb 37f
7:30pm 21 40 mph 1002.7mb 38f
7:23pm 28 40 mph 1002mb 38f
7:20pm 28 40 mph 1002.4mb 38f
7:10pm 23 30 mph 1002mb 38f
7:00pm 20 45 mph 1002mb 38f
6:50pm 20 38 mph 1001.7mb 38f
6:40pm 23 47 mph 1001.7mb 38f
6:30pm 25 44 mph 1001mb 38f
6:20pm 29 44 mph 1001mb 38f
6:16pm 29 44 mph 1000.7mb 38f
6:10pm 21 40 mph 1001mb 39f
6:00pm 25 43 mph 1000.7mb 39f
5:50pm 23 36 mph 1000.7mb 40f
5:43pm 20
mph
1000.3mb 40f
5:40pm 23 38 mph 1000.3mb 40f
5:30pm 24 39 mph 1000mb 40f
5:20pm 30 45 mph 999.7mb 40f
5:10pm 25 43 mph 999.7mb 40f
5:02pm 26 43 mph 998.6mb 40f
5:00pm 20 40 mph 999.3mb 40f
4:50pm 21 36 mph 999mb 40f
4:42pm 25
mph
998.6mb 40f
4:40pm 24 41 mph 998.6mb 40f
4:30pm 23 47 mph 998.3mb 40f
4:20pm 30 39 mph 998mb 41f
4:10pm 20 40 mph 998mb 41f
4:00pm 33 52 mph 997.6mb 41f
3:50pm 22 47 mph 997.6mb 41f
3:42pm 29
mph
997.3mb 41f
3:40pm 22 41 mph 997.3mb 41f
3:30pm 31 44 mph 996.6mb 41f
3:20pm 26 47 mph 996.3mb 42f
3:10pm 30 49 mph 995.9mb 42f
3:00pm 23 41 mph 994.6mb 43f
2:50pm 30 41 mph 994.9mb 43f
2:41pm 25
mph
994.2mb 43f
2:40pm 25 46 mph 994.2mb 43f
2:30pm 28 40 mph 993.9mb 44f
2:20pm 24 44 mph 993.2mb 44f
2:10pm 23 49 mph 992.2mb 44f
2:00pm 32 45 mph 992.6mb 45f
1:50pm 26 45 mph 991.9mb 45f
1:41pm 20
mph
991.9mb 46f
1:40pm 20 45 mph 991.5mb 46f
1:30pm 37 49 mph 990.5mb 47f
1:21pm 29 43 mph 990.5mb 48f
1:20pm 29 39 mph 990.5mb 48f
1:10pm 26 41 mph 990.2mb 49f
1:00pm 24 44 mph 989.5mb 50f
12:50pm 32 48 mph 988.8mb 52f
12:40pm 24 46 mph 988.5mb 54f
12:30pm 26 47 mph 988.1mb 56f
12:20pm 34 55 mph 987.1mb 56f
12:10pm 28 40 mph 987.5mb 58f
12:09pm 24 40 mph 987.1mb 58f
12:00pm 20 38 mph 987.5mb 58f
11:53am 18 36 mph 987.1mb 57f
11:50am 17 26 mph 987.1mb 57f
11:40am 16 23 mph 986.8mb 57f
11:30am 20 29 mph 986.8mb 57f
11:20am 17 23 mph 986.8mb 56f
11:10am 14 24 mph 986.8mb 55f
11:00am 15 24 mph 987.1mb 54f
10:50am 14 23 mph 987.5mb 53f
10:40am 14 28 mph 986.8mb 53f
10:30am 17 24 mph 986.8mb 53f
10:20am 15 22 mph 987.1mb 54f
10:10am 16 22 mph 987.5mb 54f
10:00am 14 20 mph 987.5mb 54f
9:50am 7 15 mph 987.8mb 53f
9:40am 13 20 mph 987.5mb 54f
9:30am 13 18 mph 987.5mb 55f
9:20am 14 22 mph 987.5mb 56f
9:10am 13 22 mph 987.5mb 56f
9:00am 11 20 mph 987.5mb 56f
8:50am 11 21 mph 987.5mb 55f
8:40am 11 18 mph 987.5mb 54f
8:30am 9 18 mph 987.5mb 54f
8:20am 11 23 mph 987.8mb 54f
8:10am 14 21 mph 987.8mb 55f
8:00am 11 28 mph 987.8mb 55f
7:50am 15 24 mph 987.8mb 55f
7:40am 16 25 mph 987.8mb 55f
7:30am 13 22 mph 987.8mb 55f
7:20am 14 25 mph 987.8mb 55f
7:10am 13 23 mph 987.8mb 55f
7:00am 14 20 mph 987.8mb 55f
6:50am 9 17 mph 988.1mb 54f
6:40am 10 16 mph 988.1mb 54f
6:30am 10 17 mph 987.8mb 54f
6:20am 9 16 mph 987.8mb 54f
6:10am 13 18 mph 987.8mb 55f
6:00am 11 24 mph 987.5mb 55f
5:50am 16 25 mph 987.5mb 55f
5:40am 17 30 mph 987.5mb 56f
5:30am 21 26 mph 987.5mb 56f
5:20am 16
mph
987.1mb 55f
5:10am 23 31 mph 986.8mb 55f
5:00am 20 26 mph 986.8mb 55f
4:50am 15 25 mph 986.8mb 55f
4:40am 17 24 mph 986.5mb 55f
4:30am 17 28 mph 986.5mb 55f
4:20am 14 23 mph 986.1mb 55f
4:10am 17 28 mph 985.8mb 55f
4:00am 15 23 mph 985.8mb 54f
3:50am 14 25 mph 985.8mb 54f
3:40am 16 26 mph 985.4mb 55f
3:30am 20 26 mph 985.4mb 54f
3:20am 20 29 mph 985.4mb 55f
3:10am 16 29 mph 985.4mb 54f
3:00am 20 29 mph 985.4mb 54f
2:50am 20 31 mph 985.4mb 54f
2:42am 20 31 mph 985.1mb 53f
2:40am 20 28 mph 985.4mb 53f
2:30am 15 23 mph 985.4mb 52f
2:20am 13 24 mph 985.8mb 51f
2:10am 10 17 mph 986.1mb 50f
2:00am 11 21 mph 986.1mb 49f
1:50am 14 20 mph 986.5mb 48f
1:40am 13 20 mph 986.5mb 47f
1:30am 13 23 mph 986.8mb 47f
1:22am 16 26 mph 986.8mb 48f
1:20am 16 26 mph 986.8mb 48f
1:10am 16 21 mph 986.8mb 47f
1:00am 16 23 mph 987.1mb 47f
12:50am 16 25 mph 987.5mb 47f
12:40am 16 25 mph 987.8mb 47f
12:30am 15 23 mph 988.1mb 46f
12:22am 14 21 mph 988.5mb 45f
12:20am 15 21 mph 988.5mb 45f
12:10am 16 21 mph 988.8mb 44f
12:00am 14 17 mph 989.2mb 43f
Sun 11/23 11:50pm 13 15 mph 989.5mb 41f
11:40pm 14 17 mph 989.8mb 41f
11:30pm 16 17 mph 990.2mb 41f
11:21pm 15 20 mph 990.5mb 41f
11:20pm 15 17 mph 990.5mb 41f
11:10pm 13 15 mph 990.9mb 41f
11:00pm 15 17 mph 991.2mb 41f
10:50pm 16 20 mph 991.5mb 41f
10:40pm 15 17 mph 991.9mb 41f
10:30pm 15 18 mph 992.2mb 41f
10:21pm 15 17 mph 992.6mb 41f
10:20pm 15 16 mph 992.9mb 41f
10:10pm 13 15 mph 993.2mb 41f
10:00pm 14 17 mph 993.9mb 41f
9:50pm 15 17 mph 994.2mb 41f
9:40pm 14 16 mph 994.9mb 41f
9:30pm 14 16 mph 995.3mb 41f
9:20pm 15 18 mph 995.9mb 41f
9:10pm 16
mph
996.6mb 41f
9:00pm 15 16 mph 997mb 41f
8:50pm 15 17 mph 997mb 41f
8:40pm 16 18 mph 997.6mb 41f
8:30pm 16 18 mph 998.3mb 41f
8:20pm 13 15 mph 998.6mb 40f
8:10pm 7 8 mph 999mb 40f
8:00pm 5 6 mph 999.7mb 41f
7:50pm 5 7 mph 999.7mb 42f
7:40pm 6 8 mph 1000mb 43f
7:30pm 5 6 mph 1000.3mb 42f
7:20pm 3 5 mph 1000.7mb 42f
7:10pm 5
mph
1001mb 42f
7:00pm 2 3 mph 1001.4mb 42f
6:50pm 2 3 mph 1001.7mb 42f
6:40pm 2 3 mph 1001.7mb 42f
6:30pm 3 5 mph 1002mb 42f
6:20pm 3 7 mph 1002.4mb 42f
6:10pm 3 6 mph 1002.7mb 42f
6:00pm 1 3 mph 1002.7mb 41f
5:50pm 3 8 mph 1003mb 41f
5:40pm 7 14 mph 1003.4mb 41f
5:30pm 7 9 mph 1003.7mb 41f
5:20pm 7 9 mph 1004.1mb 41f
5:10pm 6 10 mph 1004.4mb 42f
5:00pm 7 14 mph 1004.4mb 42f
4:50pm 8 13 mph 1004.7mb 43f
4:40pm 6 9 mph 1005.1mb 42f
4:30pm 6 8 mph 1005.1mb 41f
4:20pm 6 9 mph 1005.1mb 40f
4:10pm 6 7 mph 1005.1mb 40f
4:00pm 6 9 mph 1005.8mb 40f
3:50pm 9 10 mph 1006.1mb 40f
3:40pm 9 11 mph 1006.1mb 38f
3:30pm 5 6 mph 1006.4mb 38f
3:20pm 2 3 mph 1006.8mb 38f
3:10pm 2 3 mph 1007.1mb 39f
3:00pm 2 3 mph 1007.5mb 39f
2:50pm 3
mph
1007.5mb 39f
2:40pm 2
mph
1007.5mb 40f
2:30pm 1 2 mph 1007.8mb 39f
2:20pm  -  2 mph 1008.1mb 41f
2:10pm 2 3 mph 1007.8mb 40f
2:00pm 1 3 mph 1008.1mb 41f
1:50pm 2 5 mph 1008.5mb 40f
1:40pm 3 5 mph 1008.8mb 40f
1:30pm 5 7 mph 1008.8mb 39f
1:20pm 6 8 mph 1009.1mb 40f
1:10pm 8 9 mph 1009.5mb 40f
1:00pm 9 10 mph 1009.5mb 42f
12:50pm 7 11 mph 1009.8mb 46f
12:40pm 7 13 mph 1010.2mb 44f
12:30pm 7 9 mph 1010.2mb 38f
12:20pm 8 9 mph 1010.5mb 37f
12:10pm 7 9 mph 1010.8mb 38f
12:00pm 8 9 mph 1011.2mb 38f
11:50am 6
mph
1011.2mb 38f
11:40am 6
mph
1011.5mb 39f
11:30am 3 6 mph 1011.5mb 38f
11:20am 6 8 mph 1011.9mb 39f
11:10am 7 9 mph 1012.2mb 45f
11:00am 6 11 mph 1012.5mb 46f
10:50am 7 10 mph 1012.9mb 45f
10:40am 6 9 mph 1012.9mb 45f
10:30am 6 8 mph 1013.5mb 45f
10:20am 8 10 mph 1013.5mb 45f
10:10am 7 9 mph 1013.5mb 45f
10:00am 7 11 mph 1013.9mb 45f
9:50am 8 14 mph 1013.9mb 46f
9:40am 8 14 mph 1014.2mb 46f
9:30am 7 15 mph 1014.2mb 46f
9:20am 7 17 mph 1014.6mb 46f
9:10am 6 15 mph 1014.9mb 45f
9:00am 10 18 mph 1014.6mb 45f
8:50am 8 14 mph 1014.6mb 45f
8:40am 8 14 mph 1014.6mb 45f
8:30am 8 15 mph 1014.6mb 45f
8:20am 8 14 mph 1014.6mb 45f
8:10am 8 13 mph 1014.2mb 45f
8:00am 9 15 mph 1014.2mb 45f
7:50am 13 16 mph 1014.2mb 45f
7:40am 9 14 mph 1014.2mb 44f
7:30am 8 11 mph 1014.2mb 45f
7:20am 8 11 mph 1013.9mb 45f
7:10am 9 14 mph 1013.9mb 45f
7:00am 8 14 mph 1013.9mb 45f
6:50am 11 16 mph 1013.9mb 45f
6:40am 10 14 mph 1013.9mb 45f
6:30am 9 15 mph 1014.2mb 45f
6:20am 9 17 mph 1014.2mb 45f
6:10am 8 15 mph 1014.2mb 45f
6:00am 8 14 mph 1014.2mb 45f
5:50am 9 15 mph 1014.2mb 45f
5:40am 9 15 mph 1014.2mb 45f
5:30am 9 17 mph 1013.9mb 45f
5:20am 10 20 mph 1013.9mb 45f
5:10am 11 16 mph 1013.9mb 45f
5:00am 11 16 mph 1013.9mb 46f
4:50am 9 14 mph 1014.2mb 46f
4:40am 10 15 mph 1014.2mb 46f
4:30am 9 17 mph 1014.2mb 47f
4:20am 11 18 mph 1014.2mb 47f
4:10am 9 16 mph 1013.9mb 48f
4:00am 11 18 mph 1013.9mb 48f
3:50am 10 15 mph 1014.2mb 47f
3:40am 10 15 mph 1014.2mb 47f
3:30am 10 14 mph 1014.2mb 47f
3:20am 7 11 mph 1014.2mb 46f
3:10am 8 11 mph 1014.2mb 46f
3:00am 8 10 mph 1014.2mb 46f
2:50am 8 10 mph 1014.6mb 46f
2:40am 8 11 mph 1014.6mb 46f
2:30am 8 13 mph 1014.6mb 47f
2:20am 8 10 mph 1014.9mb 47f
2:10am 7 10 mph 1014.6mb 47f
2:00am 8 10 mph 1014.9mb 47f
1:50am 7 9 mph 1014.9mb 47f
1:40am 7 9 mph 1014.9mb 47f
1:30am 7 9 mph 1014.6mb 47f
1:20am 6 8 mph 1014.6mb 47f
1:10am 5 7 mph 1014.6mb 46f
1:00am 5 8 mph 1014.6mb 47f
12:50am 5 7 mph 1014.6mb 47f
12:40am 6 8 mph 1014.2mb 47f
12:30am 6 9 mph 1014.6mb 47f
12:20am 6 8 mph 1014.9mb 47f
12:10am 5 8 mph 1014.9mb 47f
12:00am 6 9 mph 1014.9mb 47f
Sat 11/22 11:50pm 6 10 mph 1014.9mb 47f
11:40pm 6 9 mph 1014.9mb 47f
11:30pm 6 9 mph 1014.9mb 46f
11:20pm 6 9 mph 1014.9mb 46f
11:10pm 7 9 mph 1014.9mb 46f
11:00pm 6 9 mph 1014.6mb 46f
10:50pm 7 10 mph 1014.6mb 46f
10:40pm 6 10 mph 1014.6mb 46f
10:30pm 6 9 mph 1014.6mb 46f
10:20pm 7 10 mph 1014.2mb 46f
10:10pm 7 10 mph 1014.2mb 46f
10:00pm 7 13 mph 1014.2mb 46f
9:50pm 7 11 mph 1014.6mb 46f
9:40pm 7 9 mph 1014.6mb 46f
9:30pm 8 10 mph 1014.6mb 46f
9:20pm 8 13 mph 1014.6mb 46f
9:10pm 9 11 mph 1014.6mb 46f
9:00pm 7 13 mph 1014.2mb 46f
8:50pm 9 14 mph 1014.2mb 46f
8:40pm 8 13 mph 1014.2mb 46f